Weather History for KL35 - March, 2013

Change the Weather History Date:

Saturday, March 23, 2013

  Actual Average (KBUO) Record (KBUO)
Temperature  
Mean Temperature 39 °F -  
Max Temperature 55 °F 64 °F 80 °F (1998)
Min Temperature 23 °F 43 °F 44 °F (1999)
Degree Days  
Heating Degree Days 26    
Moisture  
Dew Point 10 °F    
Average Humidity 32    
Maximum Humidity 54    
Minimum Humidity 12    
Precipitation  
Precipitation 0.00 in - - ()
Sea Level Pressure  
Sea Level Pressure 30.07 in    
Wind  
Wind Speed 3 mph (WSW)    
Max Wind Speed 14 mph    
Max Gust Speed 20 mph    
Visibility 10 miles    
Events      
Averages and records for this station are not official NWS values.
T = Trace of Precipitation, MM = Missing Value Source: NWS Daily Summary

Daily Weather History Graph

Daily Weather History Graph

Search for Another Location

Airport or City:

Trip Planner

Search our weather history database for the weather conditions in past years. The results will help you decide how hot, cold, wet, or windy it might be!

Date:

Astronomy

Mar. 23, 2013 Rise Set
Actual Time 6:46 AM PDT 7:01 PM PDT
Civil Twilight 6:21 AM PDT 7:26 PM PDT
Nautical Twilight 5:52 AM PDT 7:56 PM PDT
Astronomical Twilight 5:22 AM PDT 8:25 PM PDT
Moon 3:40 PM PDT (3/23) 4:16 AM PDT (3/23)
Length of Visible Light 13h 05m
Length of Day
12h 15m
Waxing Gibbous, 86% of the Moon is Illuminated
Mar 23
Waxing Gibbous
Mar 27
Full
Apr 2
Last Quarter
Apr 10
New
Apr 18
First Quarter

Hourly Weather History & Observations

Time (PDT) Temp. Windchill Dew Point Humidity Pressure Visibility Wind Dir Wind Speed Gust Speed Precip Events Conditions
12:15 AM 28.4 °F - 5.0 °F 37% 30.00 in 10.0 mi Calm Calm - N/A   Clear
12:35 AM 28.4 °F - 5.0 °F 37% 30.00 in 10.0 mi Calm Calm - N/A   Clear
12:55 AM 28.4 °F - 3.2 °F 34% 30.00 in 10.0 mi Calm Calm - N/A   Clear
1:15 AM 28.4 °F - 5.0 °F 37% 30.01 in 10.0 mi Calm Calm - N/A   Clear
1:35 AM 28.4 °F - 5.0 °F 37% 30.02 in 10.0 mi Calm Calm - N/A   Clear
1:55 AM 28.4 °F - 5.0 °F 37% 30.03 in 10.0 mi Calm Calm - N/A   Clear
2:15 AM 28.4 °F - 3.2 °F 34% 30.02 in 10.0 mi Calm Calm - N/A   Clear
2:35 AM 28.4 °F 24.6 °F 3.2 °F 34% 30.02 in 10.0 mi ENE 3.5 mph - N/A   Clear
2:55 AM 28.4 °F - 5.0 °F 37% 30.01 in 10.0 mi Calm Calm - N/A   Clear
3:15 AM 26.6 °F - 5.0 °F 40% 30.00 in 10.0 mi Calm Calm - N/A   Clear
3:35 AM 26.6 °F - 5.0 °F 40% 30.01 in 10.0 mi Calm Calm - N/A   Clear
3:55 AM 26.6 °F - 6.8 °F 43% 30.01 in 10.0 mi Calm Calm - N/A   Clear
4:15 AM 26.6 °F - 6.8 °F 43% 30.01 in 10.0 mi Calm Calm - N/A   Clear
4:35 AM 26.6 °F - 6.8 °F 43% 30.02 in 10.0 mi Calm Calm - N/A   Clear
4:55 AM 26.6 °F - 8.6 °F 47% 30.01 in 10.0 mi Calm Calm - N/A   Clear
5:15 AM 24.8 °F - 8.6 °F 50% 30.03 in 10.0 mi Calm Calm - N/A   Clear
5:35 AM 24.8 °F - 8.6 °F 50% 30.04 in 10.0 mi Calm Calm - N/A   Clear
6:15 AM 24.8 °F - 10.4 °F 54% 30.04 in 10.0 mi Calm Calm - N/A   Clear
6:35 AM 23.0 °F - 8.6 °F 54% 30.05 in 10.0 mi Calm Calm - N/A   Clear
6:55 AM 23.0 °F - 8.6 °F 54% 30.05 in 10.0 mi Calm Calm - N/A   Clear
7:15 AM 23.0 °F - 8.6 °F 54% 30.06 in 10.0 mi Calm Calm - N/A   Clear
7:35 AM 26.6 °F - 10.4 °F 51% 30.06 in 10.0 mi Calm Calm - N/A   Clear
7:55 AM 28.4 °F - 10.4 °F 47% 30.08 in 10.0 mi Calm Calm - N/A   Clear
8:15 AM 30.2 °F - 10.4 °F 44% 30.08 in 10.0 mi Calm Calm - N/A   Clear
8:35 AM 32.0 °F - 10.4 °F 41% 30.08 in 10.0 mi Calm Calm - N/A   Clear
8:55 AM 35.6 °F - 10.4 °F 35% 30.09 in 10.0 mi Calm Calm - N/A   Clear
9:15 AM 41.0 °F - 5.0 °F 23% 30.09 in 10.0 mi Calm Calm - N/A   Clear
9:35 AM 44.6 °F 41.4 °F -4.0 °F 13% 30.10 in 10.0 mi ENE 5.8 mph - N/A   Clear
9:55 AM 46.4 °F 43.5 °F 1.4 °F 16% 30.10 in 10.0 mi East 5.8 mph - N/A   Clear
10:15 AM 50.0 °F - 5.0 °F 16% 30.10 in 10.0 mi East 6.9 mph - N/A   Clear
10:35 AM 50.0 °F - 5.0 °F 16% 30.11 in 10.0 mi East 8.1 mph - N/A   Clear
10:55 AM 50.0 °F - 5.0 °F 16% 30.10 in 10.0 mi ENE 9.2 mph - N/A   Clear
11:15 AM 51.8 °F - 5.0 °F 15% 30.10 in 10.0 mi East 10.4 mph - N/A   Clear
11:35 AM 50.0 °F - 3.2 °F 15% 30.10 in 10.0 mi ESE 6.9 mph - N/A   Clear
11:55 AM 50.0 °F - 3.2 °F 15% 30.09 in 10.0 mi ENE 9.2 mph - N/A   Clear
12:15 PM 51.8 °F - 3.2 °F 14% 30.09 in 10.0 mi East 9.2 mph - N/A   Clear
12:35 PM 51.8 °F - 3.2 °F 14% 30.09 in 10.0 mi East 10.4 mph - N/A   Clear
12:55 PM 51.8 °F - 3.2 °F 14% 30.10 in 10.0 mi East 10.4 mph - N/A   Clear
1:15 PM 51.8 °F - -0.4 °F 12% 30.10 in 10.0 mi East 9.2 mph - N/A   Clear
1:35 PM 51.8 °F - -0.4 °F 12% 30.10 in 10.0 mi ENE 10.4 mph - N/A   Clear
1:55 PM 53.6 °F - 1.4 °F 12% 30.09 in 10.0 mi ENE 9.2 mph - N/A   Clear
2:15 PM 55.4 °F - 3.2 °F 12% 30.09 in 10.0 mi WSW 5.8 mph - N/A   Clear
2:35 PM 55.4 °F - 3.2 °F 12% 30.09 in 10.0 mi WSW 6.9 mph - N/A   Clear
2:55 PM 55.4 °F - 5.0 °F 13% 30.08 in 10.0 mi West 9.2 mph 17.3 mph N/A   Clear
3:15 PM 53.6 °F - 8.6 °F 16% 30.08 in 10.0 mi West 13.8 mph 18.4 mph N/A   Clear
3:35 PM 55.4 °F - 6.8 °F 14% 30.08 in 10.0 mi West 11.5 mph 18.4 mph N/A   Clear
3:55 PM 53.6 °F - 5.0 °F 14% 30.07 in 10.0 mi WSW 4.6 mph 19.6 mph N/A   Clear
4:15 PM 53.6 °F - 12.2 °F 19% 30.07 in 10.0 mi West 11.5 mph 18.4 mph N/A   Clear
4:35 PM 53.6 °F - 12.2 °F 19% 30.06 in 10.0 mi West 11.5 mph - N/A   Clear
4:55 PM 53.6 °F - 14.0 °F 21% 30.07 in 10.0 mi WSW 8.1 mph 16.1 mph N/A   Clear
5:15 PM 51.8 °F - 14.0 °F 22% 30.07 in 10.0 mi WSW 9.2 mph 17.3 mph N/A   Clear
5:35 PM 51.8 °F - 14.0 °F 22% 30.08 in 10.0 mi WSW 9.2 mph 16.1 mph N/A   Clear
5:55 PM 50.0 °F - 14.0 °F 24% 30.08 in 10.0 mi WSW 6.9 mph 16.1 mph N/A   Clear
6:15 PM 50.0 °F - 14.0 °F 24% 30.08 in 10.0 mi WSW 5.8 mph - N/A   Clear
6:35 PM 48.2 °F - 17.6 °F 30% 30.08 in 10.0 mi WSW 6.9 mph - N/A   Clear
6:55 PM 46.4 °F 42.4 °F 17.6 °F 32% 30.08 in 10.0 mi West 8.1 mph - N/A   Clear
7:15 PM 46.4 °F 42.9 °F 19.4 °F 34% 30.08 in 10.0 mi WSW 6.9 mph - N/A   Clear
7:35 PM 44.6 °F 40.2 °F 19.4 °F 37% 30.08 in 10.0 mi WSW 8.1 mph - N/A   Clear
7:55 PM 44.6 °F 40.2 °F 23.0 °F 43% 30.08 in 10.0 mi WSW 8.1 mph - N/A   Clear
8:15 PM 42.8 °F 37.0 °F 24.8 °F 49% 30.09 in 10.0 mi West 10.4 mph - N/A   Clear
8:35 PM 42.8 °F 37.0 °F 26.6 °F 53% 30.09 in 10.0 mi West 10.4 mph - N/A   Clear
8:55 PM 42.8 °F 35.8 °F 23.0 °F 46% 30.09 in 10.0 mi West 13.8 mph - N/A   Clear
9:15 PM 42.8 °F 37.0 °F 23.0 °F 46% 30.10 in 10.0 mi West 10.4 mph - N/A   Clear
9:35 PM 42.8 °F 37.0 °F 21.2 °F 42% 30.11 in 10.0 mi West 10.4 mph - N/A   Clear
9:55 PM 42.8 °F 37.0 °F 19.4 °F 39% 30.11 in 10.0 mi West 10.4 mph - N/A   Clear
10:15 PM 42.8 °F 38.6 °F 19.4 °F 39% 30.12 in 10.0 mi WSW 6.9 mph - N/A   Clear
10:35 PM 42.8 °F 37.5 °F 21.2 °F 42% 30.11 in 10.0 mi West 9.2 mph - N/A   Clear
10:55 PM 41.0 °F 35.2 °F 21.2 °F 45% 30.11 in 10.0 mi West 9.2 mph - N/A   Clear
11:15 PM 41.0 °F 36.4 °F 17.6 °F 39% 30.11 in 10.0 mi WSW 6.9 mph - N/A   Clear
11:35 PM 41.0 °F 35.8 °F 19.4 °F 42% 30.11 in 10.0 mi West 8.1 mph - N/A   Clear
11:55 PM 41.0 °F 38.0 °F 14.0 °F 33% 30.11 in 10.0 mi WSW 4.6 mph - N/A   Clear